Weather in Gornyak

Russia / Udmurt Republic     56°27′03″N   52°25′38″E
temp.,
°C
wind,
m/s
gust,
m/s
humid.,
%
clouds,
%
prec.,
mm/h
press.,
hPa
HPBL,
m
16 may, sun
sun1601:00+18ssw3116315 0.0 1018202
04:00+17ssw312588 0.0 1018222
07:00+21ssw4125124 0.0 1018344
10:00+27ssw610375 0.0 1018713
13:00+29ssw610305 0.0 10171900
16:00+30sw6102980 0.0 10173257
19:00+25sw384664 0.0 1016250
22:00+20sw31054100 0.0 1016183
17 may, mon
mon1701:00+17sw38615 0.0 1016151
04:00+15wsw24675 0.0 101764
07:00+20wsw236025 0.0 1018169
10:00+25wsw354464 0.0 1018818
13:00+28wsw593566 0.0 10171848
16:00+28w5103493 0.0 10172384
19:00+25wnw38495 0.0 1017328
22:00+19nnw24694 0.0 101875
18 may, tue
tue1801:00+17nnw22684 0.0 101917
04:00+15nnw227874 0.1 101911
07:00+18nne3469100 0.0 1020231
10:00+22nne3455100 0.0 1020723
13:00+24nne3340100 0.0 10201279
16:00+25nne2334100 0.0 10201342
19:00+22ese35515 0.0 1020169
22:00+16e396521 0.0 1021150
19 may, wed
wed1901:00+14ese310755 0.0 1022227
04:00+12e310850 0.0 1023232
07:00+14ese48705 0.0 1023365
10:00+19e57495 0.0 1022722
13:00+23ese56351 0.0 10211097
16:00+24ese56344 0.0 10211309
19:00+21ese38505 0.0 1020317
22:00+16ese39645 0.0 1020157
20 may, thu
thu2001:00+14ese366941 0.0 1020106
04:00+13se37725 0.0 1020130
07:00+17se495981 0.0 1019269
10:00+22sse68415 0.0 1019941
13:00+25sse67380 0.0 10181585
16:00+25s68380 0.0 10172135
19:00+20wsw586775 0.0 1017414
22:00+16ssw2676100 0.0 1018167